GFSSGP_925_temp_000.txt.gz
Temp
22 23 24 25 23 24 25 28 29 27 27 27 26 27 26 26 25 22 18 18 17 17 16 16 15 16 17 16 16 17 17 18 18 17 18 17 17 17 17 16 17 17 17 17 18 17 18 18 18
23 24 24 24 24 25 27 27 27 27 25 26 25 25 26 25 22 18 17 17 17 17 16 15 14 14 15 16 16 16 16 16 16 16 16 16 15 15 15 15 16 16 15 16 16 16 16 16 17
23 24 23 24 25 26 27 29 27 24 25 25 25 24 24 23 22 19 18 17 16 16 15 14 14 14 14 14 14 14 14 14 15 15 14 14 14 14 14 14 14 15 15 14 15 15 14 17 17
24 25 24 24 25 28 29 29 26 24 25 25 26 25 22 21 22 20 17 16 16 15 15 14 13 13 13 13 13 13 13 13 13 13 13 13 13 13 13 13 13 13 13 13 13 14 15 17 17
23 24 24 25 26 30 28 29 27 25 24 23 25 24 23 20 19 18 17 16 16 15 14 14 13 13 13 13 13 12 12 12 12 12 12 12 12 12 12 12 12 12 12 13 13 14 16 16 16
23 25 24 25 28 29 29 28 28 26 25 23 23 23 23 20 18 17 16 16 16 14 14 14 12 12 13 13 13 12 12 12 12 12 12 12 13 14 14 14 13 13 14 13 13 14 15 16 16
24 24 24 25 27 29 29 27 26 26 26 23 25 24 20 17 18 17 16 16 16 15 14 13 14 15 16 16 15 15 14 14 14 15 14 14 14 14 14 14 14 15 15 15 15 16 16 16 15
23 25 26 26 27 27 28 27 26 26 26 24 24 22 23 19 18 17 16 16 16 14 14 13 14 15 15 15 15 14 14 14 14 13 12 11 10 11 13 14 14 14 14 14 14 15 15 15 13
26 23 24 26 29 28 25 26 24 24 23 24 23 23 20 19 17 16 16 16 15 14 14 13 13 13 13 14 14 14 13 12 12 11 11 11 12 12 12 12 12 11 11 10 10 10 10 11 13
23 23 26 28 27 28 27 25 25 23 23 23 23 20 19 18 16 16 15 15 15 14 14 13 13 13 13 12 13 12 12 11 12 13 13 12 12 12 11 11 11 12 11 11 10 10 10 11 11
25 24 27 27 27 26 26 25 25 24 22 23 22 21 16 17 16 15 15 15 15 15 14 13 13 13 13 12 12 12 13 13 13 13 12 12 12 11 11 12 12 12 12 12 12 11 11 10 10
24 25 26 27 26 24 24 26 25 23 23 25 25 24 17 16 15 15 16 16 16 15 14 13 13 12 12 12 12 12 12 12 12 13 13 11 11 11 12 12 11 11 11 11 11 10 10 10 9
23 24 25 25 24 22 22 22 22 22 23 23 23 22 17 17 17 17 17 17 17 16 15 14 13 12 12 12 11 11 11 11 11 11 12 11 11 11 11 11 11 10 10 10 9 9 8 8 8
23 22 22 24 24 23 22 21 22 22 22 22 23 20 18 18 17 18 17 17 17 17 16 14 13 12 11 11 11 11 11 10 10 10 11 11 11 10 10 11 10 9 9 9 7 6 6 7 7
23 21 22 23 23 23 23 20 20 22 23 22 22 21 19 19 20 18 18 17 17 17 16 14 12 11 11 11 10 10 10 10 10 10 10 10 10 10 10 10 9 8 8 7 7 7 7 6 6
22 22 21 26 24 20 20 20 23 22 22 22 21 20 20 19 19 21 20 18 18 17 15 13 12 11 11 10 10 10 10 10 9 9 9 9 10 10 9 9 9 9 8 7 6 5 5 5 5
22 21 22 24 23 20 19 20 23 27 26 22 20 20 21 20 19 21 21 20 18 17 14 13 12 11 10 10 10 9 9 8 8 8 7 7 9 9 9 9 8 7 6 6 5 4 4 4 4
23 23 24 23 23 21 19 19 21 22 22 21 22 22 22 22 21 21 21 20 18 16 14 12 11 10 10 9 9 8 8 7 7 8 7 7 8 8 7 7 7 6 6 5 4 3 3 3 3
23 23 22 24 25 21 20 21 22 22 22 22 22 23 22 21 21 22 20 19 18 16 14 12 10 10 9 9 8 7 7 6 7 7 6 7 7 7 6 7 7 6 6 5 3 3 2 3 3
21 21 22 24 23 21 20 20 21 21 22 23 22 22 21 21 22 16 17 18 17 15 13 12 10 9 9 8 8 7 7 6 7 6 6 6 6 6 6 7 7 6 5 4 3 2 2 2 3
21 20 21 21 22 19 19 18 18 20 21 21 21 21 20 19 19 15 14 15 15 13 13 11 10 9 9 8 8 8 7 7 6 5 5 5 5 5 6 6 6 5 4 3 2 2 1 1 1
20 22 21 21 19 17 21 20 20 22 21 20 21 21 19 18 19 15 13 13 13 13 12 11 10 9 9 8 8 8 7 5 6 6 6 5 5 5 6 6 6 4 2 1 1 1 1 0 -0
20 19 19 19 18 17 19 17 20 21 20 21 21 22 21 20 17 15 13 13 13 13 12 11 10 9 8 8 8 8 7 7 7 6 5 4 4 4 5 5 5 3 2 1 0 -0 -1 -1 -1
18 19 18 18 16 15 18 19 20 20 21 22 21 21 20 16 14 14 14 14 13 12 11 10 10 9 9 8 7 7 7 7 7 6 5 4 3 3 4 4 4 2 1 0 -1 -1 -1 -2 -2
17 18 14 14 13 18 20 18 23 24 22 21 21 21 20 15 13 13 11 10 11 10 10 9 9 8 8 7 6 6 6 7 7 6 5 3 3 3 3 3 2 1 0 -1 -2 -2 -3 -3 -3
15 17 14 15 18 20 13 17 20 22 23 22 21 21 17 15 13 12 11 11 11 10 9 9 8 8 8 7 6 6 6 6 6 6 5 4 4 3 3 3 2 1 -1 -2 -3 -3 -4 -4 -4
17 15 19 15 11 14 20 20 21 21 21 20 20 19 16 15 14 13 12 11 11 10 8 8 8 7 7 6 5 5 5 5 5 5 5 4 4 3 3 2 1 -0 -2 -3 -4 -4 -5 -5 -5
16 16 16 14 14 13 19 19 22 23 23 20 19 18 17 15 14 12 11 10 11 10 9 8 7 6 7 6 4 4 4 4 4 4 4 3 3 3 3 2 1 -1 -3 -4 -4 -5 -5 -6 -6
13 14 15 17 15 15 18 21 22 21 21 19 19 19 19 16 14 13 11 12 12 11 9 7 7 7 6 5 4 3 3 3 3 3 3 3 3 2 2 1 -1 -2 -3 -4 -5 -6 -7 -7 -8
17 17 18 17 17 14 18 20 23 21 19 18 19 20 20 17 15 14 12 10 10 10 8 7 6 6 5 5 3 3 2 2 2 2 2 1 1 1 0 -1 -3 -3 -4 -5 -6 -7 -8 -9 -9

GFSSGP_925_temp_003.txt.gz
Temp
23 23 23 23 20 19 21 24 26 25 26 24 23 24 24 22 24 21 18 17 17 17 17 17 17 17 17 17 18 18 18 19 18 18 18 17 16 16 16 16 16 16 17 17 18 17 16 17 17
23 24 23 19 20 20 21 25 26 24 24 23 23 24 24 22 19 16 17 17 17 16 16 16 17 17 17 17 17 17 17 16 17 16 16 16 16 16 16 15 15 15 15 16 15 15 15 17 16
23 23 19 20 19 21 22 25 21 22 23 24 23 23 23 21 17 17 18 17 17 16 16 15 15 15 15 15 16 16 15 16 15 15 15 15 14 14 14 13 14 14 14 14 14 14 14 15 16
23 22 18 21 21 22 26 25 21 21 23 23 23 23 21 21 19 19 17 17 16 16 16 15 14 14 14 14 14 14 14 14 13 13 14 13 13 13 13 14 13 13 14 14 13 13 14 15 16
22 17 20 21 22 24 26 23 21 23 22 22 23 23 22 19 20 19 17 17 16 15 15 14 13 13 13 13 14 14 14 13 13 13 13 13 12 12 12 12 12 12 12 12 12 12 13 13 15
19 18 20 20 23 26 26 25 22 22 22 21 22 22 21 18 18 17 17 16 16 15 15 15 14 14 14 13 13 13 13 13 12 12 12 12 12 12 13 12 12 12 12 12 12 12 12 12 12
21 19 20 22 22 25 26 24 24 23 21 21 21 21 18 16 18 17 17 16 15 15 15 15 15 15 15 14 15 15 16 15 15 15 15 15 15 15 15 15 15 14 13 12 12 11 11 11 12
19 19 23 22 23 25 24 25 25 23 23 22 22 21 21 16 17 17 16 16 15 15 15 15 15 14 15 16 16 17 17 17 16 16 15 15 15 15 15 15 15 15 13 11 11 11 11 12 12
22 19 19 23 26 26 24 25 24 22 23 23 22 22 20 19 17 16 16 16 15 15 15 14 14 14 15 15 16 16 16 15 14 14 13 12 13 13 13 14 13 12 11 11 12 11 13 13 13
19 18 21 25 25 26 25 23 22 23 22 22 22 17 17 17 16 15 15 15 15 14 14 14 14 14 15 15 15 15 14 13 13 12 12 13 13 13 13 12 12 12 13 13 12 12 12 12 12
21 20 22 24 25 24 25 24 23 21 20 19 20 18 14 14 14 14 14 14 15 15 15 14 14 14 14 14 14 13 13 12 12 13 13 13 13 13 13 13 13 13 13 13 13 13 13 12 11
23 22 22 22 25 24 23 22 23 21 23 22 20 20 14 13 13 13 13 14 15 15 15 14 14 14 13 13 13 13 12 12 13 13 13 14 14 13 12 12 12 12 13 13 13 13 12 12 11
23 22 22 22 21 22 22 20 20 19 19 19 20 19 15 14 14 14 15 14 15 15 15 15 14 14 13 12 13 12 12 12 13 13 13 13 13 13 12 12 12 12 12 12 12 12 11 11 11
22 21 20 20 21 21 21 20 21 20 20 19 19 18 15 15 15 14 14 14 15 15 15 15 14 13 13 12 12 12 12 12 13 13 13 13 12 12 12 11 11 11 11 11 11 11 10 9 9
22 21 19 22 20 20 20 20 19 22 20 20 18 18 17 15 16 15 16 15 16 15 15 15 14 13 12 12 12 12 12 11 12 12 12 12 12 12 11 11 11 11 11 11 11 10 10 10 9
21 20 19 22 20 21 21 20 21 19 18 18 19 17 17 16 16 17 17 17 16 16 16 15 14 13 12 12 11 11 11 11 11 11 11 11 11 11 11 11 11 11 10 11 10 10 9 8 7
18 18 18 20 20 19 19 19 19 20 18 19 17 16 18 19 15 18 18 19 18 17 16 15 13 13 12 11 11 10 10 10 10 10 10 10 10 10 10 11 10 10 9 9 9 8 7 6 6
18 17 19 19 20 19 17 18 20 18 18 18 18 17 16 18 20 19 19 19 18 17 16 15 13 12 11 11 10 10 9 9 9 9 9 10 10 10 10 10 10 9 9 8 8 8 7 5 5
20 19 18 21 21 20 21 19 21 20 17 17 18 19 21 19 19 20 19 18 16 15 14 13 12 12 11 10 9 8 8 8 8 8 9 9 9 9 9 9 8 8 7 8 8 7 7 5 4
18 18 18 21 20 18 19 20 20 17 19 20 20 20 21 18 17 17 16 15 14 13 12 11 12 11 10 10 9 8 8 7 8 7 7 8 8 8 8 8 8 7 8 8 7 6 5 3 3
19 19 20 19 20 18 17 17 18 18 17 19 20 20 20 17 16 14 11 12 13 11 11 11 11 11 10 10 9 8 8 7 6 6 6 7 7 7 8 7 7 6 7 8 7 5 4 3 2
20 18 19 18 18 19 18 19 19 18 17 18 19 20 18 14 15 13 11 9 11 11 11 11 11 11 9 9 8 8 6 5 5 6 6 6 6 6 6 6 6 6 7 8 6 4 2 2 1
20 19 18 18 16 16 17 16 21 18 18 20 21 21 20 15 15 13 12 13 11 11 11 10 10 9 8 9 8 7 6 6 7 5 6 5 5 5 5 6 6 5 6 7 5 3 2 1 0
17 18 18 16 14 16 16 17 20 18 19 20 21 21 21 16 14 13 13 12 10 10 10 10 9 9 9 8 7 7 6 6 6 5 5 4 4 4 5 5 5 4 4 6 4 2 1 0 -0
16 16 13 13 11 17 17 15 21 21 19 20 21 21 20 15 12 11 10 9 9 9 9 9 9 7 8 8 7 7 7 7 7 7 5 4 4 3 4 4 4 4 3 4 3 2 1 1 -1
13 16 13 14 16 20 10 15 20 19 20 19 20 22 19 13 12 11 10 9 9 9 9 9 8 8 8 7 7 7 7 7 7 7 6 5 5 5 5 4 3 3 3 3 3 1 0 -1 -2
15 15 17 14 5 11 20 18 20 20 19 18 19 17 16 13 11 11 9 9 9 8 8 9 8 8 7 7 6 6 6 6 6 6 6 6 6 6 4 3 3 2 2 2 2 0 -0 -2 -3
16 15 15 12 14 13 19 17 21 21 22 21 17 16 15 13 12 10 9 8 9 9 9 9 8 7 7 7 6 5 5 6 5 5 6 5 6 5 3 2 2 1 1 2 1 -0 -2 -3 -4
14 15 15 15 13 18 18 20 22 21 22 21 17 15 14 14 12 11 10 10 10 9 9 8 8 7 7 7 6 5 4 5 5 5 5 5 5 4 3 2 2 1 1 1 -0 -1 -3 -5 -6
16 16 16 17 16 13 16 19 21 18 19 15 19 18 17 16 14 11 10 8 8 8 8 8 7 7 7 6 5 4 4 3 3 3 3 4 4 3 3 2 1 0 1 0 -1 -3 -5 -6 -7

GFSSGP_925_temp_006.txt.gz
Temp
23 23 23 22 20 18 20 23 25 25 25 23 23 24 23 23 23 20 17 17 18 18 17 17 17 18 18 18 18 18 18 18 17 18 17 17 17 17 16 16 16 17 17 17 17 16 15 17 16
23 23 23 17 19 19 20 21 24 24 23 21 22 22 23 24 18 15 15 17 18 18 17 17 17 18 18 18 18 17 17 17 17 17 16 16 15 15 15 15 15 15 15 16 15 15 14 15 15
23 23 19 18 16 19 21 23 23 22 22 23 23 22 22 22 17 16 18 17 17 17 17 17 17 17 17 17 17 17 16 16 16 16 15 15 14 14 13 13 14 14 14 14 14 13 14 14 15
23 21 17 19 20 20 23 24 21 21 23 22 22 23 21 20 19 19 18 17 17 17 16 16 16 15 16 17 16 15 15 15 15 14 14 14 13 13 13 13 13 14 13 13 13 13 13 15 15
22 16 19 20 20 21 23 23 18 21 22 22 22 22 21 20 20 19 17 17 17 16 16 16 14 14 15 16 15 14 15 14 14 14 14 14 13 13 13 13 13 13 13 12 12 12 13 13 13
18 16 19 19 20 22 24 21 21 21 21 21 22 21 21 18 18 18 17 17 17 16 16 15 14 14 14 14 14 14 14 15 16 16 16 15 14 14 14 15 15 14 13 13 13 12 12 12 12
19 17 19 20 21 23 24 20 21 21 20 21 20 21 19 14 18 18 17 16 16 16 16 15 14 14 14 14 16 15 14 14 14 14 13 13 14 15 15 13 13 12 12 12 12 12 13 12 12
17 17 21 20 22 23 25 23 24 21 22 20 19 21 20 15 17 17 16 15 15 15 15 15 14 14 14 15 15 15 14 14 14 14 15 15 15 15 15 15 14 11 12 12 12 13 15 14 14
19 18 18 21 24 24 24 24 24 22 23 21 20 20 20 18 17 16 15 14 14 14 15 15 15 15 15 15 14 13 14 15 14 13 14 15 15 15 15 16 16 16 15 14 14 14 14 13 13
18 16 19 21 24 24 24 22 23 23 21 21 21 19 17 16 15 14 14 13 13 13 14 15 15 15 15 15 14 14 15 16 15 14 15 15 14 14 15 15 14 14 14 14 13 13 13 13 13
19 19 19 22 24 23 24 22 21 21 20 19 20 19 13 13 13 13 14 14 14 14 14 14 14 14 15 14 14 14 14 15 14 14 14 13 13 14 14 14 13 13 13 13 13 13 13 13 13
21 19 21 22 23 22 23 22 22 18 24 21 18 19 12 12 12 13 13 14 15 14 15 15 14 14 14 14 14 14 14 14 14 13 13 12 13 13 13 13 13 13 13 13 13 13 13 13 12
20 20 21 20 19 19 21 20 20 19 19 18 18 17 14 14 14 14 15 15 14 14 15 15 14 14 14 13 14 14 14 14 13 12 12 12 13 13 13 13 13 13 13 13 13 13 13 13 12
21 21 19 19 20 20 21 20 20 22 20 17 17 17 15 14 14 14 14 14 15 15 15 15 14 14 14 13 13 13 13 13 12 12 12 11 12 13 13 13 13 12 12 12 12 12 12 12 12
21 20 18 20 20 20 18 19 17 22 21 18 18 16 16 14 16 14 16 15 16 16 16 16 15 14 13 13 13 13 13 12 12 12 11 11 12 13 13 13 12 12 12 12 11 11 11 11 11
20 20 18 21 18 20 20 20 20 19 19 19 18 16 16 16 15 17 17 17 16 15 16 16 15 14 14 13 13 12 12 11 11 11 11 11 12 12 12 12 12 11 11 11 12 12 11 11 11
17 17 16 18 18 19 18 19 20 19 17 18 18 16 16 17 16 17 17 18 18 17 16 15 15 14 14 13 12 12 12 11 11 11 11 11 11 11 11 11 11 11 11 11 11 11 10 10 9
17 15 16 19 20 18 17 17 20 20 18 17 17 15 15 16 18 20 18 19 18 17 16 16 14 13 13 13 12 11 11 10 10 10 10 10 10 11 11 11 11 11 11 11 11 10 9 8 7
18 17 17 18 20 19 17 18 20 21 18 15 17 19 20 20 21 21 20 21 17 16 14 13 12 12 12 12 11 10 9 9 9 9 10 10 10 10 10 10 10 10 10 10 10 9 8 7 6
17 18 18 20 18 16 18 19 20 19 21 21 20 20 19 19 21 15 17 18 16 15 13 12 12 12 11 11 9 9 8 9 9 9 8 9 9 9 9 9 10 9 9 9 9 8 7 5 5
17 17 18 18 18 16 15 18 17 17 18 20 16 18 20 21 22 16 13 14 13 12 12 11 11 11 11 10 9 9 7 7 7 7 7 7 8 8 9 9 9 9 8 8 7 7 7 5 2
19 17 18 17 17 18 18 19 19 18 18 18 17 18 18 19 18 16 12 9 11 11 11 10 10 10 10 10 9 8 8 7 6 6 6 7 7 7 8 8 8 8 7 6 6 6 7 6 3
19 18 17 17 15 14 15 14 20 18 17 19 21 19 20 21 15 14 11 12 11 11 10 10 10 10 9 9 9 8 7 7 7 6 6 6 6 6 7 7 7 7 7 6 5 5 7 6 4
17 18 16 12 13 16 16 16 20 16 19 19 20 20 20 21 16 13 12 11 10 10 9 9 9 9 9 9 8 8 8 7 7 6 6 6 5 5 5 6 6 6 6 5 5 4 5 5 3
17 16 13 13 11 15 16 13 22 20 21 19 21 21 20 20 14 12 10 8 7 8 9 8 8 8 8 8 8 9 8 7 7 6 5 4 4 4 4 5 5 5 5 4 3 3 3 4 3
14 16 16 13 16 20 10 15 19 18 19 19 17 18 18 16 13 12 9 9 8 8 8 8 8 7 7 8 8 7 7 7 6 7 6 5 4 4 5 4 4 4 4 3 3 3 3 3 1
15 14 17 13 4 9 18 18 20 19 19 18 17 16 16 15 13 11 9 7 8 7 8 8 8 8 8 7 6 6 6 6 6 6 6 6 5 4 5 4 3 3 3 3 3 2 2 2 1
15 15 14 12 14 13 16 17 20 19 20 17 17 18 16 13 13 11 9 8 8 8 8 9 9 8 7 6 7 6 6 6 5 6 6 5 5 4 5 4 3 2 2 2 2 1 1 1 0
14 14 14 15 13 17 17 18 17 18 18 17 17 18 13 13 12 11 10 9 10 9 9 8 8 8 8 8 7 6 6 6 5 5 5 6 5 5 5 4 3 2 1 1 1 0 0 0 -0
14 16 17 16 15 12 14 16 19 19 18 19 18 18 17 13 12 11 10 9 8 8 8 8 7 8 9 8 6 6 5 5 5 4 5 5 4 5 4 3 3 2 1 1 0 -0 -1 -0 -1

GFSSGP_925_temp_009.txt.gz
Temp
23 23 23 22 20 17 19 21 23 24 24 23 22 21 21 22 21 20 17 18 18 19 18 18 18 18 18 18 18 18 18 18 18 17 17 17 17 17 16 16 17 16 16 16 16 15 15 16 16
23 23 22 16 18 18 19 20 23 22 23 21 21 22 23 23 18 16 16 18 18 18 18 18 18 18 18 18 18 18 18 18 18 17 16 16 16 16 15 15 15 15 15 15 15 14 15 16 16
22 22 19 17 15 18 20 22 21 23 21 21 22 21 22 23 17 16 18 18 18 18 18 17 17 17 17 17 18 17 17 18 17 17 15 16 15 15 14 14 15 15 14 15 14 16 17 17 17
22 20 16 19 19 19 20 22 21 22 22 21 22 23 21 21 19 21 19 18 17 17 17 17 17 17 16 17 17 17 17 16 16 15 15 14 14 13 14 15 16 14 14 14 14 15 16 16 16
21 15 18 19 19 19 20 22 18 20 22 21 21 22 21 19 20 20 20 18 18 17 17 16 16 15 15 17 17 16 16 15 15 14 14 13 13 13 14 14 13 14 14 13 15 16 15 15 13
17 15 18 18 19 20 20 21 19 21 21 21 21 21 20 18 19 19 19 18 17 17 17 17 16 15 15 16 15 15 15 14 14 14 13 13 13 12 12 12 12 12 12 12 12 12 14 15 16
18 17 18 19 19 21 22 18 21 21 21 20 19 22 20 15 18 19 18 17 16 17 16 16 15 15 14 14 14 14 14 14 13 13 13 13 14 14 13 13 12 12 12 12 12 14 15 14 14
15 16 20 18 20 22 23 21 23 20 21 19 19 21 21 19 18 17 16 16 16 16 16 16 15 15 14 14 14 14 13 13 13 13 12 13 14 15 15 15 13 12 12 12 14 15 15 15 15
16 17 17 20 21 24 23 23 22 21 22 20 18 20 18 17 17 15 14 14 14 15 15 15 15 15 15 14 14 14 13 14 13 13 13 15 15 15 14 14 12 12 12 12 14 14 14 14 14
18 16 19 19 21 23 23 22 22 22 21 20 20 18 16 15 14 13 12 12 13 14 14 15 15 15 14 14 14 14 14 14 14 14 15 14 14 14 14 14 15 15 14 14 14 14 13 13 13
17 18 18 20 20 22 23 21 21 20 19 18 20 20 13 12 12 13 12 13 13 14 14 14 14 14 14 14 14 13 14 14 14 14 14 14 14 13 14 14 14 14 14 14 14 13 14 13 13
20 18 19 21 22 22 21 21 20 18 23 21 18 20 13 11 11 12 12 13 14 14 15 15 14 14 14 14 14 14 14 14 14 14 13 13 13 13 14 14 14 14 14 14 13 13 13 13 13
19 19 19 18 19 19 19 18 19 18 20 17 17 16 14 12 13 14 14 15 14 14 15 15 14 14 14 14 14 14 14 14 14 13 13 13 13 13 13 13 13 13 13 13 13 13 12 13 13
20 19 18 18 18 18 20 21 20 20 19 18 17 16 14 13 13 13 14 14 15 14 15 15 15 14 14 14 14 14 14 14 13 13 13 13 13 12 12 12 12 13 13 13 13 13 13 13 13
20 19 17 17 18 18 17 18 16 20 21 18 17 16 15 13 15 14 15 14 16 16 15 16 15 15 14 14 14 14 14 13 13 13 12 12 12 11 12 12 12 12 13 13 12 12 12 12 12
19 19 18 20 17 19 19 20 24 18 18 18 17 16 15 15 15 16 17 17 17 15 16 16 15 15 14 14 13 13 13 13 13 12 12 12 11 11 11 11 11 12 12 12 12 12 11 11 12
16 16 16 17 18 19 18 18 20 20 17 17 17 16 16 17 15 17 18 18 18 18 16 15 15 14 14 13 13 13 13 13 12 12 12 11 11 11 11 11 11 11 11 11 11 11 11 11 11
16 14 15 16 20 16 16 16 18 19 17 17 18 18 19 19 19 21 21 20 19 18 16 16 14 13 12 11 11 12 12 12 12 11 11 11 11 10 10 10 10 10 10 10 10 11 10 10 10
17 15 15 17 18 17 17 18 18 20 19 20 16 18 19 19 21 22 21 20 19 17 15 15 13 12 10 10 9 9 10 11 11 11 11 10 10 10 10 10 9 10 10 10 10 10 9 8 9
15 16 16 18 18 16 17 17 18 18 19 20 21 21 21 20 20 19 17 18 17 18 15 13 12 11 10 10 9 9 8 9 10 10 10 10 9 9 9 9 9 9 9 9 10 10 8 7 7
15 15 17 17 17 15 14 18 18 16 16 19 19 20 20 19 19 20 13 14 16 15 14 13 12 11 10 10 9 9 8 7 7 8 9 8 9 9 9 9 9 9 9 10 10 9 8 7 5
18 16 16 16 15 16 17 18 20 20 20 19 18 19 18 18 18 17 14 11 15 16 14 12 11 10 10 9 9 9 9 7 7 7 8 8 8 8 8 8 8 8 8 9 9 8 8 8 6
17 18 16 16 14 13 14 13 19 18 18 17 18 17 18 18 17 18 13 13 15 14 12 11 10 9 9 9 10 9 8 8 9 7 7 7 7 7 8 8 7 7 7 7 8 7 7 6 6
16 17 15 11 12 13 15 15 18 16 19 19 19 18 18 17 19 14 13 14 11 11 10 10 9 9 9 9 9 8 8 8 8 6 6 6 7 6 6 6 7 7 6 6 7 6 6 5 5
16 15 12 12 10 14 15 13 21 21 22 18 20 17 17 15 15 17 12 9 7 7 8 8 8 7 8 8 8 8 9 8 8 7 5 5 5 5 6 5 5 6 6 6 6 6 6 5 4
13 14 12 12 14 18 10 14 21 19 18 18 16 16 14 14 14 11 12 9 7 7 7 7 7 7 8 8 7 8 8 8 7 7 6 6 6 5 5 5 6 6 5 5 5 5 5 4 3
14 13 16 13 6 10 17 16 19 17 20 19 16 14 15 16 14 11 9 8 8 7 7 7 7 8 7 7 7 7 7 7 7 7 6 6 7 6 6 6 6 5 5 4 4 4 4 3 3
15 15 13 11 12 14 15 17 18 19 20 19 16 16 15 14 12 10 9 8 8 9 9 8 8 8 8 8 7 6 7 7 7 7 6 6 6 6 5 6 5 4 4 4 3 3 2 2 1
12 13 13 14 13 16 16 16 20 19 17 16 15 15 15 14 15 12 10 10 10 9 9 9 9 9 9 8 7 7 7 7 6 6 6 6 6 6 5 5 5 4 3 3 2 2 2 1 0
13 13 13 13 14 15 16 17 19 20 18 16 15 17 15 14 15 13 11 11 10 10 10 10 10 9 9 8 7 7 6 5 4 5 6 6 5 5 5 5 4 4 3 3 2 2 1 0 -1